Regional Weather Roundup
Issued by NWS Portland, ME

Current Version | Previous Version | Text Only | Print | Product List | Glossary Off
Versions: 1 2 3 4 5 6 7 8 9 10 11 12 13 14 15 16 17 18 19 20 21 22 23 24 25 26 27 28 29 30 31 32 33 34 35 36 37 38 39 40 41 42 43 44 45 46 47 48 49 50
000 ASUS41 KGYX 212305 RWRGYX WEATHER ROUNDUP FOR MAINE AND NEW HAMPSHIRE NATIONAL WEATHER SERVICE GRAY ME 700 PM EDT FRI SEP 21 2018 MEZ002-005-006-010-012-015-018-020-021-024-026-027-029-220000- MAINE CITY SKY/WX TMP DP RH WIND PRES REMARKS PORTLAND CLOUDY 63 58 83 S13G22 29.97F SANFORD CLOUDY 63 58 83 S8 29.97F BAR HARBOR CLOUDY 60 55 83 S20G26 30.01F WISCASSET CLOUDY 62 56 80 S10G20 30.01F ROCKLAND CLOUDY 61 57 87 S13 30.01F FRYEBURG CLOUDY 57 56 96 CALM 29.95F LEWISTONAUBURN CLOUDY 61 56 83 S10 29.96F AUGUSTA CLOUDY 60 54 80 S12G22 29.97F WATERVILLE CLOUDY 59 54 83 S8G16 29.94F BANGOR CLOUDY 60 55 83 S16 29.97F GREENVILLE N/A 53 52 96 S12G20 29.87F MILLINOCKET CLOUDY 54 52 93 S10G20 29.92F HOULTON CLOUDY 51 50 96 S13G22 29.89F PRESQUE ISLE CLOUDY 52 48 86 S20G28 29.83F FRENCHVILLE LGT RAIN 52 48 86 S22G39 29.73F FOG CARIBOU CLOUDY 52 48 86 S18G31 29.82F $$ NHZ002-005-008-009-011-012-014-220000- NEW HAMPSHIRE CITY SKY/WX TMP DP RH WIND PRES REMARKS ROCHESTER CLOUDY 63 59 87 S7 29.97F NASHUA CLOUDY 65 60 84 VRB7 29.99F MANCHESTER CLOUDY 66 58 75 S9 29.96F CONCORD CLOUDY 64 58 80 S8 29.96F LACONIA CLOUDY 63 57 81 S13G18 29.95F PLYMOUTH CLOUDY 60 56 85 NE3 29.94F BERLIN CLOUDY 60 55 83 SE7 29.87F WHITEFIELD CLOUDY 65 57 75 S7 29.86F JAFFREY CLOUDY 63 59 87 S10G21 30.00F KEENE CLOUDY N/A N/A N/A S12G20 29.97F LEBANON CLOUDY 66 58 75 S15 29.90F MT WASHINGTON FOG 48 48 100 SW52G75 N/A VSB 0 $$ VTZ005-007-008-220000- VERMONT CITY SKY/WX TMP DP RH WIND PRES REMARKS ST JOHNSBURY N/A 62 59 90 MISG 29.83F MONTPELIER CLOUDY 63 61 93 S20G30 29.87F BURLINGTON MOCLDY 69 60 73 S17G40 29.74F $$ MAZ007-012-024-CTZ003-RIZ002-NYZ038-NYZ072-220000- SOUTHERN NEW ENGLAND AND NY CITY SKY/WX TMP DP RH WIND PRES REMARKS BOSTON CLOUDY 66 57 72 S18 30.02F WORCESTER CLOUDY 62 58 86 S15G23 30.04F NANTUCKET FAIR 64 61 90 S10 30.11F PROVIDENCE CLOUDY 66 60 81 S13 30.07F HARTFORD CLOUDY 68 60 75 S12 30.02F ALBANY FAIR 69 61 75 S24G37 29.89F NEW YORK CITY CLOUDY 74 65 73 S17G24 30.02F $$ ANZ081-ANZ082-ANZ150-NHZ014-MEZ023>029-220000- COASTAL MARINE OBSERVATIONS STATION/POSITION TIME TEMP WIND PRES WAVE AIR SEA DIR/SP/G HT/PER (UTC) (F) (DEG/KT/KT) (MB) (FT/S) MOUNT DESERT ROC 2300 60 160/ 23/ 26 1016.8F MATINICUS ROCK 2200 60 180/ 24/ 25 1016.7F ISLE OF SHOALS 2200 66 190/ 24/ 26 1016.0F JEFFREYS LEDGE 2236 64 N/A 6/11 $$ .............KEY.............. WCI - WIND CHILL TC - TEMPERATURE IN CELSIUS VSB - VISIBILITY IN MILES HX - HEAT INDEX FAIR- INDICATES FEW OR NO CLOUDS BELOW 12,000 FT, WITH NO SIGNIFICANT WEATHER AND/OR OBSTRUCTIONS TO VISIBILITY.

USA.gov is the U.S. government's official web portal to all federal, state and local government web resources and services.